TimeAKST,TemperatureF,Dew PointF,Humidity,Sea Level PressureIn,VisibilityMPH,Wind Direction,Wind SpeedMPH,Gust SpeedMPH,PrecipitationIn,Events,Conditions,WindDirDegrees,DateUTC
12:55 AM,23.4,16.2,74,30.29,10.0,Calm,Calm,-,N/A,,Mostly Cloudy,0,2013-03-05 09:55:00
1:55 AM,23.9,17.4,76,30.29,10.0,East,4.6,-,N/A,,Overcast,90,2013-03-05 10:55:00
2:55 AM,25.2,18.9,77,30.29,10.0,Calm,Calm,-,N/A,,Overcast,0,2013-03-05 11:55:00
3:55 AM,23.7,17.6,77,30.27,10.0,Calm,Calm,-,N/A,,Scattered Clouds,0,2013-03-05 12:55:00
4:55 AM,19.9,13.1,75,30.26,10.0,Calm,Calm,-,N/A,,Partly Cloudy,0,2013-03-05 13:55:00
5:55 AM,19.9,13.1,75,30.23,10.0,Calm,Calm,-,N/A,,Scattered Clouds,0,2013-03-05 14:55:00
6:55 AM,19.4,13.8,79,30.21,10.0,ESE,4.6,-,N/A,,Clear,110,2013-03-05 15:55:00
7:55 AM,24.3,16.2,71,30.19,10.0,NNE,8.1,-,N/A,,Clear,30,2013-03-05 16:55:00
8:55 AM,19.4,13.6,78,30.20,10.0,Calm,Calm,-,N/A,,Clear,0,2013-03-05 17:55:00
9:55 AM,22.6,15.4,74,30.18,10.0,Calm,Calm,-,N/A,,Partly Cloudy,0,2013-03-05 18:55:00
10:55 AM,25.9,17.1,69,30.16,10.0,Calm,Calm,-,N/A,,Clear,0,2013-03-05 19:55:00
11:55 AM,30.0,18.3,62,30.14,10.0,Calm,Calm,-,N/A,,Clear,0,2013-03-05 20:55:00
12:55 PM,31.6,20.7,64,30.13,10.0,Calm,Calm,-,N/A,,Clear,0,2013-03-05 21:55:00
1:55 PM,34.0,18.7,54,30.10,10.0,Calm,Calm,-,N/A,,Clear,0,2013-03-05 22:55:00
2:55 PM,35.4,22.1,58,30.09,10.0,Calm,Calm,-,N/A,,Partly Cloudy,0,2013-03-05 23:55:00
3:55 PM,33.6,21.4,61,30.06,10.0,Calm,Calm,-,N/A,,Mostly Cloudy,0,2013-03-06 00:55:00
4:55 PM,34.3,22.5,62,30.04,10.0,Calm,Calm,-,N/A,,Overcast,0,2013-03-06 01:55:00
5:55 PM,32.7,23.4,68,30.03,10.0,Calm,Calm,-,N/A,,Overcast,0,2013-03-06 02:55:00
6:55 PM,28.8,21.6,74,30.02,10.0,Calm,Calm,-,N/A,,Mostly Cloudy,0,2013-03-06 03:55:00
7:55 PM,27.3,20.8,77,30.01,10.0,Calm,Calm,-,N/A,,Overcast,0,2013-03-06 04:55:00
8:55 PM,26.2,20.8,80,30.00,10.0,Calm,Calm,-,N/A,,Overcast,0,2013-03-06 05:55:00
9:55 PM,27.1,21.7,80,30.00,10.0,Calm,Calm,-,N/A,,Overcast,0,2013-03-06 06:55:00
10:55 PM,25.7,19.9,79,29.99,10.0,Calm,Calm,-,N/A,,Overcast,0,2013-03-06 07:55:00
11:55 PM,26.2,20.3,78,29.98,10.0,NE,3.5,-,N/A,,Overcast,50,2013-03-06 08:55:00